Weather in Bratslav

Ukraine / Vinnytsia Region     48°48′52″N   28°56′40″E
temp.,
°C
wind,
m/s
gust,
m/s
humid.,
%
clouds,
%
prec.,
mm/h
press.,
hPa
HPBL,
m
28 february, sun
sun2823:00+2nw6119188 0.1 1023674
02:00+1nw5118993 0.2 1024586
05:00+1nnw6108699 0.0 1025716
08:00+1nnw6108599 0.1 1026858
11:00+3nnw6107398 0.1 10271190
14:00+3nw796999 0.2 10251104
17:00+3wnw5971100 0.0 1024905
20:00+1wnw5119498 0.0 1024594
1 march, mon
mon123:00+1nw5997100 1.3 1023499
02:00+1nnw2598100 3.3 1023291
05:00+1n3698100 0.6 1024318
08:00+1nne4897100 0.9 1027453
11:00+2n5791100 0.2 1029584
14:00+3n4681100 0.3 1031667
17:00+3n4682100 0.1 1031623
20:00+2nnw2389100 0.1 1033148
2 march, tue
tue223:00+1w358795 0.0 1033134
02:000wnw379184 0.0 1033149
05:000w499058 0.0 1031210
08:00+1wnw5118464 0.0 1030393
11:00+6wnw6107690 0.0 1028564
14:00+9wnw7116457 0.0 1026946
17:00+8wnw612661 0.0 1024899
20:00+4nw514811 0.0 1025617
3 march, wed
wed323:00+3nw614860 0.0 1026656
02:00+2nnw6108737 0.0 1027606
05:00+2nnw5986100 0.0 1027625
08:00+3nnw5879100 0.0 1029781
11:00+3nnw567756 0.0 1030665
14:00+6nnw455858 0.0 1029762
17:00+6nnw24605 0.0 1028391
20:00+3w016914 0.0 102822
4 march, thu
thu423:00+2sw22730 0.0 102822
02:00+1ssw33770 0.0 102648
05:00+1ssw35811 0.0 102494
08:00+2ssw48821 0.0 1022251
11:00+7sw58699 0.0 1020536
14:00+9sw576434 0.0 1017602
17:00+8sw367439 0.0 1015223
20:00+5sw348420 0.0 101449